C/2016 N6 ( PanSTARRS )

Japanese version
Home page
Updated on February 13, 2018

---------------------------------------------------------------------

* Profile

Discovery Date July 14, 2016
Magnitude 20.7 mag
Discoverer Pan-STARRS 1 telescope (Haleakala)

* Pictures

* Orbital Elements

Epoch 2018 July 21.0 TT = JDT 2458320.5
T 2018 July 18.21131 TT                                 MPCW
q   2.6690908            (2000.0)            P               Q
z  +0.0004670      Peri.  162.80547     -0.53334891     +0.08479297
 +/-0.0000004      Node   298.97615     +0.61778489     +0.71869710
e   0.9987534      Incl.  105.83224     +0.57782417     -0.69013378
From 1295 observations 2016 June 27-2018 Jan. 25, mean residual 0".4.

* Finding Charts

* Magnitudes Graph

        m1 = 3.5 + 5 log d + 14.0 log r

---------------------------------------------------------------------

The orbital elements are published on M.P.E.C. 2018-B155.
The charts are made with StellaNavigator Ver.10 (AstroArts).
The magnitudes graphs are made with Comet for Windows.

---------------------------------------------------------------------

Copyright(C) Seiichi Yoshida (comet@aerith.net). All rights reserved.